Location: Cabeza de los Veneras
(40.2000°N, 5.2000°W)
Time: 03:08:40
(UTC+00:00)

PSLV R/B - Pass Details

Date: 18 April 2024
Orbit: 466 x 521 km, 97.7° (Epoch: 25 May)

Event Time Altitude Azimuth Distance (km) Brightness Sun altitude
Exits shadow 19:08:50 - 118° (ESE) 2,421 6.4 -1.9°
Reaches altitude 10° 19:11:21 10° 93° (E) 1,726 5.7 -2.4°
Drops below altitude 10° 19:14:52 10° 37° (NE) 1,747 6.2 -3.0°
Enters shadow 20:14:11 -61° 170° (S) 11,676 10.5 -13.4°
Maximum altitude 20:46:20 42° 261° (W) 741 4.8 -18.7°
